This demonstration page uses our WeatherBlox Daily Observations layout. Learn more.

Left ArrowRight Arrow

41.12389, -100.76542

Hourly Observations for July 11, 2022

Temp ( °F °C ) Dew Point ( °F °C ) Humidity (%) Winds ( mph kmh ) Pressure ( in mb ) Visibility ( mi km ) Precip ( " mm )
12:53 am 00:53 Clear 75 23.9 66 18.9 74 74 NW 6 9 29.83 1010 10 16 0.00 0.00
1:53 am 01:53 Clear 71 21.7 65 18.3 81 81 WSW 5 7 29.85 1011 10 16 0.00 0.00
2:53 am 02:53 Clear 72 22.2 66 18.9 82 82 NNE 6 9 29.87 1011 10 16 0.00 0.00
3:53 am 03:53 Clear 72 22.2 65 18.3 79 79 NNE 7 11 29.81 1010 10 16 0.00 0.00
4:53 am 04:53 Clear 72 22.2 67 19.4 84 84 NNE 7 11 29.85 1011 10 16 0.00 0.00
5:53 am 05:53 Clear 71 21.7 63 17.2 76 76 NE 23 37 29.91 1013 10 16 0.00 0.00
6:53 am 06:53 Sunny 67 19.4 59 15 76 76 N 8 13 29.97 1015 10 16 0.00 0.00
7:53 am 07:53 Sunny 67 19.4 58 14.4 73 73 NNE 14 22 30.03 1017 10 16 0.00 0.00
8:53 am 08:53 Sunny 70 21.1 58 14.4 66 66 NNE 14 22 30.04 1017 10 16 0.00 0.00
9:53 am 09:53 Sunny 74 23.3 56 13.3 54 54 NNE 14 22 30.05 1018 10 16 0.00 0.00
10:53 am 10:53 Mostly Sunny 78 25.6 55 12.8 45 45 NNE 18 30 30.04 1017 10 16 0.00 0.00
11:53 am 11:53 Sunny 82 27.8 54 12.2 38 38 N 12 19 30.06 1018 10 16 0.00 0.00
12:53 pm 12:53 Sunny 84 28.9 55 12.8 37 37 N 10 17 30.05 1018 10 16 0.00 0.00
1:53 pm 13:53 Sunny 84 28.9 56 13.3 38 38 N 12 19 30.06 1018 10 16 0.00 0.00
2:53 pm 14:53 Sunny 86 30 55 12.8 35 35 N 10 17 30.05 1018 10 16 0.00 0.00
3:53 pm 15:53 Sunny 86 30 54 12.2 33 33 N 15 24 30.04 1017 10 16 0.00 0.00
4:53 pm 16:53 Sunny 85 29.4 52 11.1 32 32 N 13 20 30.04 1017 10 16 0.00 0.00
5:53 pm 17:53 Sunny 85 29.4 53 11.7 33 33 N 14 22 30.03 1017 10 16 0.00 0.00
6:53 pm 18:53 Sunny 84 28.9 50 10 31 31 N 10 17 30.03 1017 10 16 0.00 0.00
7:53 pm 19:53 Sunny 82 27.8 51 10.6 34 34 N 7 11 30.04 1017 10 16 0.00 0.00
8:53 pm 20:53 Sunny 76 24.4 54 12.2 47 47 N 7 11 30.05 1018 10 16 0.00 0.00
9:53 pm 21:53 Clear 69 20.6 55 12.8 61 61 NE 6 9 30.07 1018 10 16 0.00 0.00
10:53 pm 22:53 Clear 66 18.9 55 12.8 68 68 Calm 30.09 1019 10 16 0.00 0.00
11:53 pm 23:53 Clear 64 17.8 54 12.2 70 70 Calm 30.11 1020 10 16 0.00 0.00

Powered by AerisWeather